Time,TemperatureF,DewpointF,PressureIn,WindDirection,WindDirectionDegrees,WindSpeedMPH,WindSpeedGustMPH,Humidity,HourlyPrecipIn,Conditions,Clouds,dailyrainin,SolarRadiationWatts/m^2,SoftwareType,DateUTC
2013-12-28 00:00:00,21.1,18.9,30.26,South,178,0.0,2.0,91,0.00,,---,0.00,0.00,VWS V15.00,2013-12-28 05:00:00,
2013-12-28 00:01:00,22.5,20.0,30.28,South,178,0.0,0.0,90,0.00,,---,0.00,0.00,VWS V14.01,2013-12-28 05:01:00,
2013-12-28 00:06:00,22.3,19.8,30.28,South,178,0.0,0.0,90,0.00,,---,0.00,0.00,VWS V14.01,2013-12-28 05:06:00,
2013-12-28 00:11:00,22.1,19.6,30.27,South,178,0.0,0.0,90,0.00,,---,0.00,0.00,VWS V14.01,2013-12-28 05:11:00,
2013-12-28 00:16:00,22.0,19.5,30.27,South,178,0.0,0.0,90,0.00,,---,0.00,0.00,VWS V14.01,2013-12-28 05:16:00,
2013-12-28 00:21:00,21.8,19.6,30.27,South,178,0.0,0.0,91,0.00,,---,0.00,0.00,VWS V14.01,2013-12-28 05:21:00,
2013-12-28 00:26:00,21.7,19.5,30.26,South,178,0.0,0.0,91,0.00,,---,0.00,0.00,VWS V14.01,2013-12-28 05:26:00,
2013-12-28 00:30:00,20.1,18.1,30.25,South,178,0.0,1.0,92,0.00,,---,0.00,0.00,VWS V15.00,2013-12-28 05:30:00,
2013-12-28 00:31:00,21.6,19.4,30.26,South,178,0.0,0.0,91,0.00,,---,0.00,0.00,VWS V14.01,2013-12-28 05:31:00,
2013-12-28 00:36:00,21.4,19.2,30.26,South,178,0.0,0.0,91,0.00,,---,0.00,0.00,VWS V14.01,2013-12-28 05:36:00,
2013-12-28 00:41:00,21.4,19.2,30.26,South,178,0.0,0.0,91,0.00,,---,0.00,0.00,VWS V14.01,2013-12-28 05:41:00,
2013-12-28 00:46:00,21.4,19.4,30.26,South,178,0.0,2.0,92,0.00,,---,0.00,0.00,VWS V14.01,2013-12-28 05:46:00,
2013-12-28 00:51:00,21.3,19.3,30.25,South,178,0.0,2.0,92,0.00,,---,0.00,0.00,VWS V14.01,2013-12-28 05:51:00,
2013-12-28 00:56:00,21.2,19.0,30.26,South,178,0.0,2.0,91,0.00,,---,0.00,0.00,VWS V14.01,2013-12-28 05:56:00,
2013-12-28 01:00:00,19.4,17.5,30.24,East,84,0.0,3.0,92,0.00,,---,0.00,0.00,VWS V15.00,2013-12-28 06:00:00,
2013-12-28 01:01:00,21.1,18.9,30.26,South,178,0.0,0.0,91,0.00,,---,0.00,0.00,VWS V14.01,2013-12-28 06:01:00,
2013-12-28 01:06:00,20.9,18.7,30.25,South,178,0.0,1.0,91,0.00,,---,0.00,0.00,VWS V14.01,2013-12-28 06:06:00,
2013-12-28 01:11:00,20.8,18.9,30.25,South,178,0.0,1.0,92,0.00,,---,0.00,0.00,VWS V14.01,2013-12-28 06:11:00,
2013-12-28 01:16:00,20.6,18.6,30.25,South,178,0.0,1.0,92,0.00,,---,0.00,0.00,VWS V14.01,2013-12-28 06:16:00,
2013-12-28 01:21:00,20.3,18.1,30.25,South,178,0.0,1.0,91,0.00,,---,0.00,0.00,VWS V14.01,2013-12-28 06:21:00,
2013-12-28 01:26:00,20.2,18.2,30.25,South,178,0.0,1.0,92,0.00,,---,0.00,0.00,VWS V14.01,2013-12-28 06:26:00,
2013-12-28 01:30:00,19.4,17.7,30.24,East,84,0.0,3.0,93,0.00,,---,0.00,0.00,VWS V15.00,2013-12-28 06:30:00,
2013-12-28 01:31:00,20.0,18.0,30.25,South,178,0.0,0.0,92,0.00,,---,0.00,0.00,VWS V14.01,2013-12-28 06:31:00,
2013-12-28 01:36:00,19.9,18.0,30.25,South,178,0.0,0.0,92,0.00,,---,0.00,0.00,VWS V14.01,2013-12-28 06:36:00,
2013-12-28 01:41:00,19.7,17.8,30.24,East,84,0.0,3.0,92,0.00,,---,0.00,0.00,VWS V14.01,2013-12-28 06:41:00,
2013-12-28 01:46:00,19.7,17.8,30.24,East,84,0.0,3.0,92,0.00,,---,0.00,0.00,VWS V14.01,2013-12-28 06:46:00,
2013-12-28 01:51:00,19.4,19.4,30.25,East,84,0.0,3.0,100,0.00,,---,0.00,0.00,VWS V14.01,2013-12-28 06:51:00,
2013-12-28 01:56:00,19.4,17.5,30.24,East,84,0.0,3.0,92,0.00,,---,0.00,0.00,VWS V14.01,2013-12-28 06:56:00,
2013-12-28 02:00:00,18.9,17.2,30.24,East,84,0.0,3.0,93,0.00,,---,0.00,0.00,VWS V15.00,2013-12-28 07:00:00,
2013-12-28 02:01:00,19.4,17.7,30.24,East,84,1.0,1.0,93,0.00,,---,0.00,0.00,VWS V14.01,2013-12-28 07:01:00,
2013-12-28 02:06:00,19.4,17.7,30.24,East,84,0.0,1.0,93,0.00,,---,0.00,0.00,VWS V14.01,2013-12-28 07:06:00,
2013-12-28 02:11:00,19.5,17.8,30.24,East,84,0.0,1.0,93,0.00,,---,0.00,0.00,VWS V14.01,2013-12-28 07:11:00,
2013-12-28 02:16:00,19.3,17.6,30.24,East,84,0.0,2.0,93,0.00,,---,0.00,0.00,VWS V14.01,2013-12-28 07:16:00,
2013-12-28 02:21:00,19.3,17.6,30.24,East,84,0.0,3.0,93,0.00,,---,0.00,0.00,VWS V14.01,2013-12-28 07:21:00,
2013-12-28 02:26:00,19.4,17.7,30.24,East,84,0.0,3.0,93,0.00,,---,0.00,0.00,VWS V14.01,2013-12-28 07:26:00,
2013-12-28 02:30:00,25.5,24.5,30.23,SW,233,2.0,5.0,96,0.00,,---,0.00,0.00,VWS V15.00,2013-12-28 07:30:00,
2013-12-28 02:31:00,19.4,17.7,30.24,East,84,0.0,0.0,93,0.00,,---,0.00,0.00,VWS V14.01,2013-12-28 07:31:00,
2013-12-28 02:36:00,19.4,17.7,30.24,East,84,0.0,0.0,93,0.00,,---,0.00,0.00,VWS V14.01,2013-12-28 07:36:00,
2013-12-28 02:41:00,19.2,17.5,30.24,East,84,0.0,3.0,93,0.00,,---,0.00,0.00,VWS V14.01,2013-12-28 07:41:00,
2013-12-28 02:46:00,19.0,17.3,30.24,East,84,0.0,3.0,93,0.00,,---,0.00,0.00,VWS V14.01,2013-12-28 07:46:00,
2013-12-28 02:51:00,18.9,17.2,30.24,East,84,0.0,3.0,93,0.00,,---,0.00,0.00,VWS V14.01,2013-12-28 07:51:00,
2013-12-28 02:56:00,18.9,17.2,30.24,East,84,0.0,3.0,93,0.00,,---,0.00,0.00,VWS V14.01,2013-12-28 07:56:00,
2013-12-28 03:00:00,28.7,24.8,30.22,WSW,244,0.0,6.0,85,0.00,,---,0.00,0.00,VWS V15.00,2013-12-28 08:00:00,
2013-12-28 03:01:00,18.9,17.2,30.24,East,84,1.0,1.0,93,0.00,,---,0.00,0.00,VWS V14.01,2013-12-28 08:01:00,
2013-12-28 03:06:00,19.0,17.3,30.24,East,84,0.0,2.0,93,0.00,,---,0.00,0.00,VWS V14.01,2013-12-28 08:06:00,
2013-12-28 03:11:00,19.0,17.3,30.24,East,84,0.0,3.0,93,0.00,,---,0.00,0.00,VWS V14.01,2013-12-28 08:11:00,
2013-12-28 03:16:00,19.3,17.9,30.24,ESE,118,1.0,3.0,94,0.00,,---,0.00,0.00,VWS V14.01,2013-12-28 08:16:00,
2013-12-28 03:21:00,20.2,18.8,30.23,SSW,196,0.0,3.0,94,0.00,,---,0.00,0.00,VWS V14.01,2013-12-28 08:21:00,
2013-12-28 03:26:00,23.2,22.2,30.24,West,259,3.0,5.0,96,0.00,,---,0.00,0.00,VWS V14.01,2013-12-28 08:26:00,
2013-12-28 03:30:00,29.4,25.2,30.21,West,260,1.0,6.0,84,0.00,,---,0.00,0.00,VWS V15.00,2013-12-28 08:30:00,
2013-12-28 03:31:00,26.2,25.2,30.23,West,263,4.0,4.0,96,0.00,,---,0.00,0.00,VWS V14.01,2013-12-28 08:31:00,
2013-12-28 03:36:00,27.6,25.6,30.23,West,261,3.0,4.0,92,0.00,,---,0.00,0.00,VWS V14.01,2013-12-28 08:36:00,
2013-12-28 03:41:00,28.3,25.5,30.23,WSW,249,3.0,4.0,89,0.00,,---,0.00,0.00,VWS V14.01,2013-12-28 08:41:00,
2013-12-28 03:46:00,28.5,25.1,30.23,SSW,193,3.0,6.0,87,0.00,,---,0.00,0.00,VWS V14.01,2013-12-28 08:46:00,
2013-12-28 03:51:00,28.6,25.0,30.22,SW,229,3.0,6.0,86,0.00,,---,0.00,0.00,VWS V14.01,2013-12-28 08:51:00,
2013-12-28 03:56:00,28.7,25.0,30.22,WSW,244,0.0,6.0,86,0.00,,---,0.00,0.00,VWS V14.01,2013-12-28 08:56:00,
2013-12-28 04:00:00,30.4,25.9,30.20,SW,231,4.0,7.0,83,0.00,,---,0.00,0.00,VWS V15.00,2013-12-28 09:00:00,
2013-12-28 04:01:00,28.7,24.8,30.22,WSW,244,0.0,0.0,85,0.00,,---,0.00,0.00,VWS V14.01,2013-12-28 09:01:00,
2013-12-28 04:06:00,28.9,25.0,30.22,SSW,210,0.0,6.0,85,0.00,,---,0.00,0.00,VWS V14.01,2013-12-28 09:06:00,
2013-12-28 04:11:00,29.1,25.2,30.22,SW,215,1.0,6.0,85,0.00,,---,0.00,0.00,VWS V14.01,2013-12-28 09:11:00,
2013-12-28 04:16:00,29.2,25.0,30.22,West,259,0.0,6.0,84,0.00,,---,0.00,0.00,VWS V14.01,2013-12-28 09:16:00,
2013-12-28 04:21:00,29.3,25.1,30.22,SW,225,3.0,6.0,84,0.00,,---,0.00,0.00,VWS V14.01,2013-12-28 09:21:00,
2013-12-28 04:26:00,29.4,25.2,30.22,WSW,248,2.0,6.0,84,0.00,,---,0.00,0.00,VWS V14.01,2013-12-28 09:26:00,
2013-12-28 04:30:00,30.3,25.5,30.17,WSW,244,5.0,9.0,82,0.00,,---,0.00,0.00,VWS V15.00,2013-12-28 09:30:00,
2013-12-28 04:31:00,29.5,25.3,30.21,West,260,0.0,4.0,84,0.00,,---,0.00,0.00,VWS V14.01,2013-12-28 09:31:00,
2013-12-28 04:36:00,29.7,25.5,30.21,SW,235,3.0,5.0,84,0.00,,---,0.00,0.00,VWS V14.01,2013-12-28 09:36:00,
2013-12-28 04:41:00,29.9,25.4,30.21,West,259,3.0,5.0,83,0.00,,---,0.00,0.00,VWS V14.01,2013-12-28 09:41:00,
2013-12-28 04:46:00,30.1,25.6,30.20,WSW,244,0.0,6.0,83,0.00,,---,0.00,0.00,VWS V14.01,2013-12-28 09:46:00,
2013-12-28 04:51:00,30.2,25.7,30.20,NNW,331,2.0,6.0,83,0.00,,---,0.00,0.00,VWS V14.01,2013-12-28 09:51:00,
2013-12-28 04:56:00,30.2,25.7,30.20,WSW,238,3.0,7.0,83,0.00,,---,0.00,0.00,VWS V14.01,2013-12-28 09:56:00,
2013-12-28 05:00:00,30.8,25.4,30.17,SW,221,5.0,9.0,80,0.00,,---,0.00,0.00,VWS V15.00,2013-12-28 10:00:00,
2013-12-28 05:01:00,30.5,25.7,30.20,SW,225,0.0,5.0,82,0.00,,---,0.00,0.00,VWS V14.01,2013-12-28 10:01:00,
2013-12-28 05:06:00,30.6,25.8,30.19,SW,227,5.0,7.0,82,0.00,,---,0.00,0.00,VWS V14.01,2013-12-28 10:06:00,
2013-12-28 05:11:00,30.5,25.7,30.19,SW,235,4.0,9.0,82,0.00,,---,0.00,0.00,VWS V14.01,2013-12-28 10:11:00,
2013-12-28 05:16:00,30.4,25.6,30.18,WSW,244,7.0,9.0,82,0.00,,---,0.00,0.00,VWS V14.01,2013-12-28 10:16:00,
2013-12-28 05:21:00,30.4,25.6,30.18,SW,233,4.0,9.0,82,0.00,,---,0.00,0.00,VWS V14.01,2013-12-28 10:21:00,
2013-12-28 05:26:00,30.3,25.5,30.17,WSW,257,0.0,9.0,82,0.00,,---,0.00,0.00,VWS V14.01,2013-12-28 10:26:00,
2013-12-28 05:30:00,30.6,25.2,30.17,SSW,211,5.0,7.0,80,0.00,,---,0.00,0.00,VWS V15.00,2013-12-28 10:30:00,
2013-12-28 05:31:00,30.4,25.6,30.18,West,269,4.0,9.0,82,0.00,,---,0.00,0.00,VWS V14.01,2013-12-28 10:31:00,
2013-12-28 05:36:00,30.5,25.7,30.18,West,267,3.0,9.0,82,0.00,,---,0.00,0.00,VWS V14.01,2013-12-28 10:36:00,
2013-12-28 05:41:00,30.7,25.6,30.18,WNW,296,4.0,9.0,81,0.00,,---,0.00,0.00,VWS V14.01,2013-12-28 10:41:00,
2013-12-28 05:46:00,30.8,25.7,30.18,West,279,2.0,9.0,81,0.00,,---,0.00,0.00,VWS V14.01,2013-12-28 10:46:00,
2013-12-28 05:51:00,30.8,25.7,30.18,WNW,287,4.0,9.0,81,0.00,,---,0.00,0.00,VWS V14.01,2013-12-28 10:51:00,
2013-12-28 05:56:00,30.9,25.5,30.17,WSW,242,4.0,9.0,80,0.00,,---,0.00,0.00,VWS V14.01,2013-12-28 10:56:00,
2013-12-28 06:00:00,31.0,25.3,30.16,WSW,254,1.0,8.0,79,0.00,,---,0.00,0.00,VWS V15.00,2013-12-28 11:00:00,
2013-12-28 06:01:00,30.8,25.4,30.17,SW,232,0.0,5.0,80,0.00,,---,0.00,0.00,VWS V14.01,2013-12-28 11:01:00,
2013-12-28 06:02:00,30.8,25.4,30.18,West,263,1.0,5.0,80,0.00,,---,0.00,0.00,VWS V14.01,2013-12-28 11:02:00,
2013-12-28 06:07:00,30.7,25.6,30.18,WNW,295,4.0,5.0,81,0.00,,---,0.00,0.00,VWS V14.01,2013-12-28 11:07:00,
2013-12-28 06:12:00,30.7,25.3,30.18,SW,214,1.0,6.0,80,0.00,,---,0.00,0.00,VWS V14.01,2013-12-28 11:12:00,
2013-12-28 06:17:00,30.7,25.3,30.17,South,184,3.0,6.0,80,0.00,,---,0.00,0.00,VWS V14.01,2013-12-28 11:17:00,
2013-12-28 06:22:00,30.6,25.5,30.17,SSW,212,0.0,6.0,81,0.00,,---,0.00,0.00,VWS V14.01,2013-12-28 11:22:00,
2013-12-28 06:27:00,30.6,25.5,30.17,WSW,257,6.0,7.0,81,0.00,,---,0.00,0.00,VWS V14.01,2013-12-28 11:27:00,
2013-12-28 06:30:00,31.6,25.5,30.16,SW,220,0.0,5.0,78,0.00,,---,0.00,12.00,VWS V15.00,2013-12-28 11:30:00,
2013-12-28 06:32:00,30.7,25.3,30.16,WSW,240,3.0,8.0,80,0.00,,---,0.00,0.00,VWS V14.01,2013-12-28 11:32:00,
2013-12-28 06:37:00,30.8,25.4,30.16,SW,221,3.0,8.0,80,0.00,,---,0.00,0.00,VWS V14.01,2013-12-28 11:37:00,
2013-12-28 06:42:00,30.9,25.2,30.16,WSW,258,0.0,8.0,79,0.00,,---,0.00,0.00,VWS V14.01,2013-12-28 11:42:00,
2013-12-28 06:47:00,31.0,25.3,30.16,SW,221,3.0,8.0,79,0.00,,---,0.00,0.00,VWS V14.01,2013-12-28 11:47:00,
2013-12-28 06:52:00,31.0,25.3,30.16,West,259,0.0,8.0,79,0.00,,---,0.00,0.00,VWS V14.01,2013-12-28 11:52:00,
2013-12-28 06:57:00,31.1,25.4,30.16,West,273,0.0,8.0,79,0.00,,---,0.00,0.00,VWS V14.01,2013-12-28 11:57:00,
2013-12-28 07:00:00,33.2,25.8,30.17,WNW,297,2.0,7.0,74,0.00,,---,0.00,53.00,VWS V15.00,2013-12-28 12:00:00,
2013-12-28 07:02:00,31.0,25.3,30.16,NW,305,3.0,4.0,79,0.00,,---,0.00,0.00,VWS V14.01,2013-12-28 12:02:00,
2013-12-28 07:07:00,31.0,25.3,30.16,WSW,256,2.0,4.0,79,0.00,,---,0.00,0.00,VWS V14.01,2013-12-28 12:07:00,
2013-12-28 07:12:00,31.1,25.0,30.16,WSW,240,0.0,4.0,78,0.00,,---,0.00,0.00,VWS V14.01,2013-12-28 12:12:00,
2013-12-28 07:17:00,31.1,25.0,30.16,ESE,116,2.0,5.0,78,0.00,,---,0.00,0.00,VWS V14.01,2013-12-28 12:17:00,
2013-12-28 07:22:00,31.2,25.1,30.16,ESE,109,1.0,5.0,78,0.00,,---,0.00,5.00,VWS V14.01,2013-12-28 12:22:00,
2013-12-28 07:27:00,31.5,25.4,30.16,SE,133,0.0,5.0,78,0.00,,---,0.00,9.00,VWS V14.01,2013-12-28 12:27:00,
2013-12-28 07:30:00,33.6,25.9,30.16,WSW,238,0.0,9.0,73,0.00,,---,0.00,35.00,VWS V15.00,2013-12-28 12:30:00,
2013-12-28 07:32:00,31.7,25.6,30.16,West,263,2.0,6.0,78,0.00,,---,0.00,12.00,VWS V14.01,2013-12-28 12:32:00,
2013-12-28 07:37:00,32.1,25.7,30.16,West,277,3.0,6.0,77,0.00,,---,0.00,21.00,VWS V14.01,2013-12-28 12:37:00,
2013-12-28 07:42:00,32.4,25.7,30.16,NW,307,2.0,6.0,76,0.00,,---,0.00,21.00,VWS V14.01,2013-12-28 12:42:00,
2013-12-28 07:47:00,32.7,25.7,30.16,WSW,256,1.0,6.0,75,0.00,,---,0.00,23.00,VWS V14.01,2013-12-28 12:47:00,
2013-12-28 07:52:00,32.8,25.8,30.16,NW,310,0.0,6.0,75,0.00,,---,0.00,32.00,VWS V14.01,2013-12-28 12:52:00,
2013-12-28 07:57:00,33.0,25.6,30.16,West,269,4.0,7.0,74,0.00,,---,0.00,51.00,VWS V14.01,2013-12-28 12:57:00,
2013-12-28 08:00:00,34.7,25.9,30.17,West,267,0.0,11.0,70,0.00,,---,0.00,83.00,VWS V15.00,2013-12-28 13:00:00,
2013-12-28 08:02:00,33.2,25.5,30.16,SSW,213,0.0,8.0,73,0.00,,---,0.00,51.00,VWS V14.01,2013-12-28 13:02:00,
2013-12-28 08:07:00,33.4,25.7,30.16,WSW,246,0.0,8.0,73,0.00,,---,0.00,44.00,VWS V14.01,2013-12-28 13:07:00,
2013-12-28 08:12:00,33.5,25.8,30.16,NW,306,0.0,9.0,73,0.00,,---,0.00,40.00,VWS V14.01,2013-12-28 13:12:00,
2013-12-28 08:17:00,33.5,25.8,30.16,WSW,238,5.0,9.0,73,0.00,,---,0.00,42.00,VWS V14.01,2013-12-28 13:17:00,
2013-12-28 08:22:00,33.5,25.8,30.15,SSW,206,3.0,9.0,73,0.00,,---,0.00,39.00,VWS V14.01,2013-12-28 13:22:00,
2013-12-28 08:27:00,33.6,25.9,30.16,SW,225,2.0,9.0,73,0.00,,---,0.00,33.00,VWS V14.01,2013-12-28 13:27:00,
2013-12-28 08:30:00,35.1,26.3,30.15,SSE,162,0.0,9.0,70,0.00,,---,0.00,33.00,VWS V15.00,2013-12-28 13:30:00,
2013-12-28 08:32:00,33.7,26.0,30.16,ESE,107,0.0,4.0,73,0.00,,---,0.00,39.00,VWS V14.01,2013-12-28 13:32:00,
2013-12-28 08:37:00,33.8,26.1,30.17,NE,43,0.0,4.0,73,0.00,,---,0.00,46.00,VWS V14.01,2013-12-28 13:37:00,
2013-12-28 08:42:00,34.0,25.9,30.17,NW,319,0.0,8.0,72,0.00,,---,0.00,54.00,VWS V14.01,2013-12-28 13:42:00,
2013-12-28 08:47:00,34.2,26.1,30.17,West,265,3.0,10.0,72,0.00,,---,0.00,65.00,VWS V14.01,2013-12-28 13:47:00,
2013-12-28 08:52:00,34.4,26.0,30.17,WSW,248,7.0,11.0,71,0.00,,---,0.00,74.00,VWS V14.01,2013-12-28 13:52:00,
2013-12-28 08:57:00,34.6,25.8,30.18,South,184,5.0,11.0,70,0.00,,---,0.00,88.00,VWS V14.01,2013-12-28 13:57:00,
2013-12-28 09:00:00,35.9,26.4,30.15,West,261,0.0,11.0,68,0.00,,---,0.00,130.00,VWS V15.00,2013-12-28 14:00:00,
2013-12-28 09:02:00,34.7,26.3,30.17,WSW,251,0.0,4.0,71,0.00,,---,0.00,81.00,VWS V14.01,2013-12-28 14:02:00,
2013-12-28 09:07:00,34.8,26.4,30.16,WNW,282,2.0,5.0,71,0.00,,---,0.00,84.00,VWS V14.01,2013-12-28 14:07:00,
2013-12-28 09:12:00,34.9,26.1,30.16,WSW,246,2.0,6.0,70,0.00,,---,0.00,74.00,VWS V14.01,2013-12-28 14:12:00,
2013-12-28 09:17:00,35.0,26.2,30.15,ESE,121,0.0,7.0,70,0.00,,---,0.00,56.00,VWS V14.01,2013-12-28 14:17:00,
2013-12-28 09:22:00,35.1,26.3,30.15,WSW,256,0.0,9.0,70,0.00,,---,0.00,56.00,VWS V14.01,2013-12-28 14:22:00,
2013-12-28 09:27:00,35.1,26.0,30.15,West,267,0.0,9.0,69,0.00,,---,0.00,39.00,VWS V14.01,2013-12-28 14:27:00,
2013-12-28 09:30:00,36.6,26.0,30.16,WNW,294,0.0,10.0,65,0.00,,---,0.00,114.00,VWS V15.00,2013-12-28 14:30:00,
2013-12-28 09:32:00,35.1,26.0,30.15,West,269,2.0,4.0,69,0.00,,---,0.00,30.00,VWS V14.01,2013-12-28 14:32:00,
2013-12-28 09:37:00,35.2,26.1,30.15,NNW,327,0.0,11.0,69,0.00,,---,0.00,25.00,VWS V14.01,2013-12-28 14:37:00,
2013-12-28 09:42:00,35.3,26.2,30.16,NW,315,3.0,11.0,69,0.00,,---,0.00,44.00,VWS V14.01,2013-12-28 14:42:00,
2013-12-28 09:47:00,35.4,25.9,30.16,WNW,285,0.0,11.0,68,0.00,,---,0.00,58.00,VWS V14.01,2013-12-28 14:47:00,
2013-12-28 09:52:00,35.6,26.1,30.15,West,277,0.0,11.0,68,0.00,,---,0.00,91.00,VWS V14.01,2013-12-28 14:52:00,
2013-12-28 09:57:00,35.8,26.3,30.15,West,261,0.0,11.0,68,0.00,,---,0.00,120.00,VWS V14.01,2013-12-28 14:57:00,
2013-12-28 10:00:00,37.0,26.3,30.14,WNW,284,7.0,13.0,65,0.00,,---,0.00,174.00,VWS V15.00,2013-12-28 15:00:00,
2013-12-28 10:02:00,36.0,26.5,30.16,WSW,256,1.0,5.0,68,0.00,,---,0.00,134.00,VWS V14.01,2013-12-28 15:02:00,
2013-12-28 10:07:00,36.2,26.3,30.17,WSW,239,4.0,5.0,67,0.00,,---,0.00,134.00,VWS V14.01,2013-12-28 15:07:00,
2013-12-28 10:12:00,36.5,26.2,30.17,WSW,240,2.0,5.0,66,0.00,,---,0.00,132.00,VWS V14.01,2013-12-28 15:12:00,
2013-12-28 10:17:00,36.7,26.4,30.17,WSW,240,2.0,5.0,66,0.00,,---,0.00,86.00,VWS V14.01,2013-12-28 15:17:00,
2013-12-28 10:22:00,36.7,26.1,30.17,West,275,0.0,9.0,65,0.00,,---,0.00,104.00,VWS V14.01,2013-12-28 15:22:00,
2013-12-28 10:27:00,36.7,26.1,30.16,WNW,284,6.0,10.0,65,0.00,,---,0.00,113.00,VWS V14.01,2013-12-28 15:27:00,
2013-12-28 10:30:00,39.4,27.1,30.14,SSW,202,0.0,12.0,61,0.00,,---,0.00,160.00,VWS V15.00,2013-12-28 15:30:00,
2013-12-28 10:32:00,36.6,26.3,30.16,SSW,205,4.0,6.0,66,0.00,,---,0.00,104.00,VWS V14.01,2013-12-28 15:32:00,
2013-12-28 10:37:00,36.5,26.2,30.15,SW,232,5.0,8.0,66,0.00,,---,0.00,91.00,VWS V14.01,2013-12-28 15:37:00,
2013-12-28 10:42:00,36.4,26.1,30.15,WSW,252,13.0,13.0,66,0.00,,---,0.00,105.00,VWS V14.01,2013-12-28 15:42:00,
2013-12-28 10:47:00,36.5,26.2,30.15,WNW,290,2.0,13.0,66,0.00,,---,0.00,134.00,VWS V14.01,2013-12-28 15:47:00,
2013-12-28 10:52:00,36.6,26.3,30.14,NW,306,0.0,13.0,66,0.00,,---,0.00,139.00,VWS V14.01,2013-12-28 15:52:00,
2013-12-28 10:57:00,36.9,26.2,30.14,WSW,244,0.0,13.0,65,0.00,,---,0.00,123.00,VWS V14.01,2013-12-28 15:57:00,
2013-12-28 11:00:00,40.9,27.7,30.13,WSW,242,2.0,10.0,59,0.00,,---,0.00,141.00,VWS V15.00,2013-12-28 16:00:00,
2013-12-28 11:02:00,37.2,26.9,30.14,West,261,2.0,9.0,66,0.00,,---,0.00,250.00,VWS V14.01,2013-12-28 16:02:00,
2013-12-28 11:07:00,37.7,26.6,30.13,WSW,242,3.0,11.0,64,0.00,,---,0.00,77.00,VWS V14.01,2013-12-28 16:07:00,
2013-12-28 11:12:00,37.7,26.6,30.14,SW,217,6.0,11.0,64,0.00,,---,0.00,84.00,VWS V14.01,2013-12-28 16:12:00,
2013-12-28 11:17:00,38.1,27.0,30.14,West,267,0.0,11.0,64,0.00,,---,0.00,348.00,VWS V14.01,2013-12-28 16:17:00,
2013-12-28 11:22:00,38.8,27.3,30.13,West,259,6.0,11.0,63,0.00,,---,0.00,213.00,VWS V14.01,2013-12-28 16:22:00,
2013-12-28 11:27:00,39.2,26.9,30.14,WNW,292,2.0,11.0,61,0.00,,---,0.00,134.00,VWS V14.01,2013-12-28 16:27:00,
2013-12-28 11:30:00,42.2,28.1,30.10,East,98,0.0,8.0,57,0.00,,---,0.00,169.00,VWS V15.00,2013-12-28 16:30:00,
2013-12-28 11:32:00,39.6,27.7,30.14,WSW,244,4.0,6.0,62,0.00,,---,0.00,123.00,VWS V14.01,2013-12-28 16:32:00,
2013-12-28 11:37:00,39.8,27.5,30.13,SE,134,0.0,10.0,61,0.00,,---,0.00,141.00,VWS V14.01,2013-12-28 16:37:00,
2013-12-28 11:42:00,40.3,27.9,30.13,West,269,5.0,10.0,61,0.00,,---,0.00,158.00,VWS V14.01,2013-12-28 16:42:00,
2013-12-28 11:47:00,40.4,27.6,30.13,SW,223,5.0,10.0,60,0.00,,---,0.00,146.00,VWS V14.01,2013-12-28 16:47:00,
2013-12-28 11:52:00,40.6,27.8,30.13,South,182,0.0,10.0,60,0.00,,---,0.00,176.00,VWS V14.01,2013-12-28 16:52:00,
2013-12-28 11:57:00,40.9,27.7,30.13,SW,231,4.0,10.0,59,0.00,,---,0.00,113.00,VWS V14.01,2013-12-28 16:57:00,
2013-12-28 12:00:00,43.9,29.2,30.09,South,174,1.0,7.0,56,0.00,,---,0.00,211.00,VWS V15.00,2013-12-28 17:00:00,
2013-12-28 12:02:00,41.0,27.8,30.12,SSW,206,4.0,7.0,59,0.00,,---,0.00,125.00,VWS V14.01,2013-12-28 17:02:00,
2013-12-28 12:07:00,41.2,28.4,30.12,WNW,298,2.0,7.0,60,0.00,,---,0.00,148.00,VWS V14.01,2013-12-28 17:07:00,
2013-12-28 12:12:00,41.4,28.6,30.11,WSW,244,4.0,8.0,60,0.00,,---,0.00,83.00,VWS V14.01,2013-12-28 17:12:00,
2013-12-28 12:17:00,41.8,28.5,30.11,SW,226,7.0,8.0,59,0.00,,---,0.00,171.00,VWS V14.01,2013-12-28 17:17:00,
2013-12-28 12:22:00,41.9,28.6,30.10,SSE,150,0.0,8.0,59,0.00,,---,0.00,123.00,VWS V14.01,2013-12-28 17:22:00,
2013-12-28 12:27:00,42.2,28.5,30.10,SW,219,4.0,8.0,58,0.00,,---,0.00,181.00,VWS V14.01,2013-12-28 17:27:00,
2013-12-28 12:30:00,46.5,29.8,30.08,West,269,3.0,4.0,52,0.00,,---,0.00,336.00,VWS V15.00,2013-12-28 17:30:00,
2013-12-28 12:32:00,42.4,28.3,30.10,SW,224,2.0,4.0,57,0.00,,---,0.00,229.00,VWS V14.01,2013-12-28 17:32:00,
2013-12-28 12:37:00,42.7,28.5,30.10,SSE,155,0.0,7.0,57,0.00,,---,0.00,128.00,VWS V14.01,2013-12-28 17:37:00,
2013-12-28 12:41:00,43.0,28.8,30.09,SW,219,4.0,7.0,57,0.00,,---,0.00,193.00,VWS V14.01,2013-12-28 17:41:00,
2013-12-28 12:46:00,43.1,28.5,30.09,SW,220,0.0,7.0,56,0.00,,---,0.00,116.00,VWS V14.01,2013-12-28 17:46:00,
2013-12-28 12:51:00,43.3,29.1,30.09,SE,130,0.0,7.0,57,0.00,,---,0.00,127.00,VWS V14.01,2013-12-28 17:51:00,
2013-12-28 12:56:00,43.6,29.0,30.09,West,268,0.0,7.0,56,0.00,,---,0.00,188.00,VWS V14.01,2013-12-28 17:56:00,
2013-12-28 13:00:00,47.2,30.0,30.07,WNW,288,2.0,5.0,51,0.00,,---,0.00,290.00,VWS V15.00,2013-12-28 18:00:00,
2013-12-28 13:01:00,44.1,29.0,30.09,West,278,0.0,3.0,55,0.00,,---,0.00,190.00,VWS V14.01,2013-12-28 18:01:00,
2013-12-28 13:06:00,44.5,29.4,30.08,West,278,0.0,3.0,55,0.00,,---,0.00,260.00,VWS V14.01,2013-12-28 18:06:00,
2013-12-28 13:11:00,45.0,29.4,30.08,West,278,0.0,3.0,54,0.00,,---,0.00,327.00,VWS V14.01,2013-12-28 18:11:00,
2013-12-28 13:16:00,45.6,29.5,30.08,West,278,0.0,3.0,53,0.00,,---,0.00,352.00,VWS V14.01,2013-12-28 18:16:00,
2013-12-28 13:21:00,46.1,29.9,30.08,West,278,0.0,4.0,53,0.00,,---,0.00,346.00,VWS V14.01,2013-12-28 18:21:00,
2013-12-28 13:26:00,46.4,29.8,30.08,WNW,290,0.0,4.0,52,0.00,,---,0.00,339.00,VWS V14.01,2013-12-28 18:26:00,
2013-12-28 13:30:00,48.0,30.3,30.07,West,279,2.0,5.0,50,0.00,,---,0.00,234.00,VWS V15.00,2013-12-28 18:30:00,
2013-12-28 13:31:00,46.5,29.4,30.08,West,271,2.0,4.0,51,0.00,,---,0.00,334.00,VWS V14.01,2013-12-28 18:31:00,
2013-12-28 13:36:00,46.6,29.5,30.08,WSW,238,4.0,4.0,51,0.00,,---,0.00,325.00,VWS V14.01,2013-12-28 18:36:00,
2013-12-28 13:41:00,46.7,29.5,30.08,West,277,0.0,5.0,51,0.00,,---,0.00,320.00,VWS V14.01,2013-12-28 18:41:00,
2013-12-28 13:46:00,47.0,29.8,30.08,WNW,288,0.0,5.0,51,0.00,,---,0.00,311.00,VWS V14.01,2013-12-28 18:46:00,
2013-12-28 13:51:00,47.2,29.5,30.08,WNW,288,1.0,5.0,50,0.00,,---,0.00,304.00,VWS V14.01,2013-12-28 18:51:00,
2013-12-28 13:56:00,47.2,30.0,30.08,WNW,288,0.0,5.0,51,0.00,,---,0.00,294.00,VWS V14.01,2013-12-28 18:56:00,
2013-12-28 14:00:00,46.5,29.8,30.08,WSW,240,0.0,6.0,52,0.00,,---,0.00,74.00,VWS V15.00,2013-12-28 19:00:00,
2013-12-28 14:01:00,47.2,29.5,30.07,WNW,288,0.0,3.0,50,0.00,,---,0.00,285.00,VWS V14.01,2013-12-28 19:01:00,
2013-12-28 14:06:00,47.3,30.1,30.08,SW,219,1.0,4.0,51,0.00,,---,0.00,276.00,VWS V14.01,2013-12-28 19:06:00,
2013-12-28 14:11:00,47.3,29.6,30.07,SW,219,0.0,4.0,50,0.00,,---,0.00,267.00,VWS V14.01,2013-12-28 19:11:00,
2013-12-28 14:16:00,47.5,29.8,30.07,SW,227,0.0,4.0,50,0.00,,---,0.00,260.00,VWS V14.01,2013-12-28 19:16:00,
2013-12-28 14:21:00,47.8,30.1,30.07,WSW,255,2.0,5.0,50,0.00,,---,0.00,251.00,VWS V14.01,2013-12-28 19:21:00,
2013-12-28 14:26:00,47.8,30.1,30.07,WSW,257,0.0,5.0,50,0.00,,---,0.00,241.00,VWS V14.01,2013-12-28 19:26:00,
2013-12-28 14:30:00,45.3,29.6,30.08,WSW,242,1.0,4.0,54,0.00,,---,0.00,40.00,VWS V15.00,2013-12-28 19:30:00,
2013-12-28 14:31:00,48.1,29.9,30.07,West,279,0.0,2.0,49,0.00,,---,0.00,230.00,VWS V14.01,2013-12-28 19:31:00,
2013-12-28 14:36:00,48.1,29.9,30.08,West,279,0.0,3.0,49,0.00,,---,0.00,218.00,VWS V14.01,2013-12-28 19:36:00,
2013-12-28 14:41:00,48.1,29.9,30.07,West,279,0.0,3.0,49,0.00,,---,0.00,204.00,VWS V14.01,2013-12-28 19:41:00,
2013-12-28 14:46:00,48.0,29.8,30.08,NW,306,0.0,6.0,49,0.00,,---,0.00,137.00,VWS V14.01,2013-12-28 19:46:00,
2013-12-28 14:51:00,47.4,29.7,30.08,WSW,247,0.0,6.0,50,0.00,,---,0.00,72.00,VWS V14.01,2013-12-28 19:51:00,
2013-12-28 14:56:00,46.8,29.6,30.08,WNW,288,3.0,6.0,51,0.00,,---,0.00,90.00,VWS V14.01,2013-12-28 19:56:00,
2013-12-28 15:00:00,42.1,29.2,30.09,WSW,242,0.0,3.0,60,0.00,,---,0.00,16.00,VWS V15.00,2013-12-28 20:00:00,
2013-12-28 15:01:00,46.4,29.8,30.08,WSW,240,2.0,4.0,52,0.00,,---,0.00,76.00,VWS V14.01,2013-12-28 20:01:00,
2013-12-28 15:06:00,46.3,29.6,30.08,West,277,0.0,4.0,52,0.00,,---,0.00,69.00,VWS V14.01,2013-12-28 20:06:00,
2013-12-28 15:11:00,46.3,30.1,30.08,West,277,0.0,4.0,53,0.00,,---,0.00,76.00,VWS V14.01,2013-12-28 20:11:00,
2013-12-28 15:16:00,46.0,29.8,30.08,West,277,0.0,4.0,53,0.00,,---,0.00,67.00,VWS V14.01,2013-12-28 20:16:00,
2013-12-28 15:21:00,45.8,29.7,30.08,WNW,294,0.0,4.0,53,0.00,,---,0.00,74.00,VWS V14.01,2013-12-28 20:21:00,
2013-12-28 15:26:00,45.6,29.5,30.08,SSW,211,0.0,4.0,53,0.00,,---,0.00,46.00,VWS V14.01,2013-12-28 20:26:00,
2013-12-28 15:30:00,45.3,29.6,30.08,WSW,242,1.0,4.0,54,0.00,,---,0.00,40.00,VWS V15.00,2013-12-28 20:30:00,
2013-12-28 15:31:00,45.1,29.5,30.08,WSW,242,0.0,1.0,54,0.00,,---,0.00,35.00,VWS V14.01,2013-12-28 20:31:00,
2013-12-28 15:36:00,44.8,29.2,30.08,WSW,242,0.0,1.0,54,0.00,,---,0.00,25.00,VWS V14.01,2013-12-28 20:36:00,
2013-12-28 15:41:00,44.4,29.3,30.08,WSW,242,0.0,3.0,55,0.00,,---,0.00,21.00,VWS V14.01,2013-12-28 20:41:00,
2013-12-28 15:46:00,43.7,29.0,30.09,WSW,242,0.0,3.0,56,0.00,,---,0.00,19.00,VWS V14.01,2013-12-28 20:46:00,
2013-12-28 15:51:00,43.1,29.3,30.09,WSW,242,0.0,3.0,58,0.00,,---,0.00,18.00,VWS V14.01,2013-12-28 20:51:00,
2013-12-28 15:56:00,42.4,29.1,30.09,WSW,242,0.0,3.0,59,0.00,,---,0.00,16.00,VWS V14.01,2013-12-28 20:56:00,
2013-12-28 16:00:00,36.2,28.1,30.10,WSW,242,0.0,0.0,72,0.00,,---,0.00,0.00,VWS V15.00,2013-12-28 21:00:00,
2013-12-28 16:01:00,41.9,29.5,30.09,WSW,242,0.0,0.0,61,0.00,,---,0.00,14.00,VWS V14.01,2013-12-28 21:01:00,
2013-12-28 16:06:00,41.4,29.0,30.09,WSW,242,0.0,0.0,61,0.00,,---,0.00,12.00,VWS V14.01,2013-12-28 21:06:00,
2013-12-28 16:11:00,41.1,29.1,30.09,WSW,242,0.0,0.0,62,0.00,,---,0.00,11.00,VWS V14.01,2013-12-28 21:11:00,
2013-12-28 16:16:00,40.6,29.4,30.09,WSW,242,0.0,0.0,64,0.00,,---,0.00,9.00,VWS V14.01,2013-12-28 21:16:00,
2013-12-28 16:21:00,39.8,29.4,30.10,WSW,242,0.0,0.0,66,0.00,,---,0.00,7.00,VWS V14.01,2013-12-28 21:21:00,
2013-12-28 16:26:00,39.1,29.1,30.10,WSW,242,0.0,0.0,67,0.00,,---,0.00,0.00,VWS V14.01,2013-12-28 21:26:00,
2013-12-28 16:30:00,33.7,27.3,30.10,WSW,242,0.0,0.0,77,0.00,,---,0.00,0.00,VWS V15.00,2013-12-28 21:30:00,
2013-12-28 16:31:00,38.6,29.0,30.10,WSW,242,0.0,0.0,68,0.00,,---,0.00,0.00,VWS V14.01,2013-12-28 21:31:00,
2013-12-28 16:36:00,38.2,28.9,30.10,WSW,242,0.0,0.0,69,0.00,,---,0.00,0.00,VWS V14.01,2013-12-28 21:36:00,
2013-12-28 16:41:00,37.9,29.0,30.10,WSW,242,0.0,0.0,70,0.00,,---,0.00,0.00,VWS V14.01,2013-12-28 21:41:00,
2013-12-28 16:46:00,37.5,28.6,30.09,WSW,242,0.0,0.0,70,0.00,,---,0.00,0.00,VWS V14.01,2013-12-28 21:46:00,
2013-12-28 16:51:00,37.1,28.6,30.10,WSW,242,0.0,0.0,71,0.00,,---,0.00,0.00,VWS V14.01,2013-12-28 21:51:00,
2013-12-28 16:56:00,36.6,28.4,30.10,WSW,242,0.0,0.0,72,0.00,,---,0.00,0.00,VWS V14.01,2013-12-28 21:56:00,
2013-12-28 17:00:00,31.5,26.6,30.10,WSW,242,0.0,0.0,82,0.00,,---,0.00,0.00,VWS V15.00,2013-12-28 22:00:00,
2013-12-28 17:01:00,36.0,28.2,30.10,WSW,242,0.0,0.0,73,0.00,,---,0.00,0.00,VWS V14.01,2013-12-28 22:01:00,
2013-12-28 17:06:00,35.5,28.0,30.10,WSW,242,0.0,0.0,74,0.00,,---,0.00,0.00,VWS V14.01,2013-12-28 22:06:00,
2013-12-28 17:11:00,35.1,28.0,30.10,WSW,242,0.0,0.0,75,0.00,,---,0.00,0.00,VWS V14.01,2013-12-28 22:11:00,
2013-12-28 17:16:00,34.8,28.0,30.10,WSW,242,0.0,0.0,76,0.00,,---,0.00,0.00,VWS V14.01,2013-12-28 22:16:00,
2013-12-28 17:21:00,34.5,27.7,30.10,WSW,242,0.0,0.0,76,0.00,,---,0.00,0.00,VWS V14.01,2013-12-28 22:21:00,
2013-12-28 17:26:00,34.0,27.2,30.10,WSW,242,0.0,0.0,76,0.00,,---,0.00,0.00,VWS V14.01,2013-12-28 22:26:00,
2013-12-28 17:30:00,29.9,26.0,30.11,WSW,242,0.0,2.0,85,0.00,,---,0.00,0.00,VWS V15.00,2013-12-28 22:30:00,
2013-12-28 17:31:00,33.4,27.0,30.10,WSW,242,0.0,0.0,77,0.00,,---,0.00,0.00,VWS V14.01,2013-12-28 22:31:00,
2013-12-28 17:36:00,32.7,26.9,30.10,WSW,242,0.0,0.0,79,0.00,,---,0.00,0.00,VWS V14.01,2013-12-28 22:36:00,
2013-12-28 17:41:00,32.4,26.9,30.10,WSW,242,0.0,0.0,80,0.00,,---,0.00,0.00,VWS V14.01,2013-12-28 22:41:00,
2013-12-28 17:46:00,32.1,26.9,30.10,WSW,242,0.0,0.0,81,0.00,,---,0.00,0.00,VWS V14.01,2013-12-28 22:46:00,
2013-12-28 17:51:00,31.9,26.7,30.10,WSW,242,0.0,0.0,81,0.00,,---,0.00,0.00,VWS V14.01,2013-12-28 22:51:00,
2013-12-28 17:56:00,31.7,26.8,30.10,WSW,242,0.0,0.0,82,0.00,,---,0.00,0.00,VWS V14.01,2013-12-28 22:56:00,
2013-12-28 18:00:00,29.0,25.3,30.13,WSW,242,0.0,2.0,86,0.00,,---,0.00,0.00,VWS V15.00,2013-12-28 23:00:00,
2013-12-28 18:01:00,31.3,26.5,30.10,WSW,242,0.0,0.0,82,0.00,,---,0.00,0.00,VWS V14.01,2013-12-28 23:01:00,
2013-12-28 18:06:00,31.0,26.5,30.10,WSW,242,0.0,0.0,83,0.00,,---,0.00,0.00,VWS V14.01,2013-12-28 23:06:00,
2013-12-28 18:11:00,30.5,26.0,30.10,WSW,242,1.0,1.0,83,0.00,,---,0.00,0.00,VWS V14.01,2013-12-28 23:11:00,
2013-12-28 18:16:00,30.3,26.1,30.10,WSW,242,0.0,2.0,84,0.00,,---,0.00,0.00,VWS V14.01,2013-12-28 23:16:00,
2013-12-28 18:21:00,30.1,26.1,30.11,WSW,242,0.0,2.0,85,0.00,,---,0.00,0.00,VWS V14.01,2013-12-28 23:21:00,
2013-12-28 18:26:00,30.1,26.1,30.11,WSW,242,1.0,2.0,85,0.00,,---,0.00,0.00,VWS V14.01,2013-12-28 23:26:00,
2013-12-28 18:30:00,27.9,24.5,30.14,WSW,242,0.0,1.0,87,0.00,,---,0.00,0.00,VWS V15.00,2013-12-28 23:30:00,
2013-12-28 18:31:00,29.8,25.9,30.12,WSW,242,0.0,0.0,85,0.00,,---,0.00,0.00,VWS V14.01,2013-12-28 23:31:00,
2013-12-28 18:36:00,29.6,25.9,30.12,WSW,242,0.0,0.0,86,0.00,,---,0.00,0.00,VWS V14.01,2013-12-28 23:36:00,
2013-12-28 18:41:00,29.4,25.7,30.12,WSW,242,1.0,2.0,86,0.00,,---,0.00,0.00,VWS V14.01,2013-12-28 23:41:00,
2013-12-28 18:46:00,29.3,25.9,30.13,WSW,242,0.0,2.0,87,0.00,,---,0.00,0.00,VWS V14.01,2013-12-28 23:46:00,
2013-12-28 18:51:00,29.2,25.8,30.13,WSW,242,0.0,2.0,87,0.00,,---,0.00,0.00,VWS V14.01,2013-12-28 23:51:00,
2013-12-28 18:56:00,29.2,25.8,30.13,WSW,242,0.0,2.0,87,0.00,,---,0.00,0.00,VWS V14.01,2013-12-28 23:56:00,
2013-12-28 19:00:00,27.9,25.1,30.12,WSW,242,0.0,1.0,89,0.00,,---,0.00,0.00,VWS V15.00,2013-12-29 00:00:00,
2013-12-28 19:01:00,28.9,25.5,30.13,WSW,242,0.0,0.0,87,0.00,,---,0.00,0.00,VWS V14.01,2013-12-29 00:01:00,
2013-12-28 19:06:00,28.7,25.3,30.13,WSW,242,0.0,1.0,87,0.00,,---,0.00,0.00,VWS V14.01,2013-12-29 00:06:00,
2013-12-28 19:11:00,28.6,25.2,30.13,WSW,242,0.0,1.0,87,0.00,,---,0.00,0.00,VWS V14.01,2013-12-29 00:11:00,
2013-12-28 19:16:00,28.6,25.5,30.13,WSW,242,0.0,1.0,88,0.00,,---,0.00,0.00,VWS V14.01,2013-12-29 00:16:00,
2013-12-28 19:21:00,28.5,25.4,30.13,WSW,242,0.0,1.0,88,0.00,,---,0.00,0.00,VWS V14.01,2013-12-29 00:21:00,
2013-12-28 19:26:00,28.2,25.1,30.14,WSW,242,0.0,1.0,88,0.00,,---,0.00,0.00,VWS V14.01,2013-12-29 00:26:00,
2013-12-28 19:30:00,27.4,24.9,30.11,WSW,242,0.0,0.0,90,0.00,,---,0.00,0.00,VWS V15.00,2013-12-29 00:30:00,
2013-12-28 19:31:00,27.8,24.7,30.14,WSW,242,0.0,0.0,88,0.00,,---,0.00,0.00,VWS V14.01,2013-12-29 00:31:00,
2013-12-28 19:36:00,27.8,25.0,30.14,WSW,242,0.0,0.0,89,0.00,,---,0.00,0.00,VWS V14.01,2013-12-29 00:36:00,
2013-12-28 19:41:00,27.7,24.9,30.13,WSW,242,0.0,0.0,89,0.00,,---,0.00,0.00,VWS V14.01,2013-12-29 00:41:00,
2013-12-28 19:46:00,27.8,25.0,30.13,WSW,242,0.0,1.0,89,0.00,,---,0.00,0.00,VWS V14.01,2013-12-29 00:46:00,
2013-12-28 19:51:00,27.9,25.4,30.13,WSW,242,0.0,1.0,90,0.00,,---,0.00,0.00,VWS V14.01,2013-12-29 00:51:00,
2013-12-28 19:56:00,27.9,25.1,30.13,WSW,242,0.0,1.0,89,0.00,,---,0.00,0.00,VWS V14.01,2013-12-29 00:56:00,
2013-12-28 20:00:00,27.6,25.3,30.10,WSW,242,0.0,0.0,91,0.00,,---,0.00,0.00,VWS V15.00,2013-12-29 01:00:00,
2013-12-28 20:01:00,27.8,25.0,30.13,WSW,242,0.0,0.0,89,0.00,,---,0.00,0.00,VWS V14.01,2013-12-29 01:01:00,
2013-12-28 20:06:00,27.8,25.2,30.12,WSW,242,0.0,0.0,90,0.00,,---,0.00,0.00,VWS V14.01,2013-12-29 01:06:00,
2013-12-28 20:11:00,27.8,25.2,30.12,WSW,242,0.0,0.0,90,0.00,,---,0.00,0.00,VWS V14.01,2013-12-29 01:11:00,
2013-12-28 20:16:00,27.7,25.2,30.11,WSW,242,0.0,0.0,90,0.00,,---,0.00,0.00,VWS V14.01,2013-12-29 01:16:00,
2013-12-28 20:21:00,27.5,25.0,30.11,WSW,242,0.0,0.0,90,0.00,,---,0.00,0.00,VWS V14.01,2013-12-29 01:21:00,
2013-12-28 20:26:00,27.4,24.9,30.11,WSW,242,0.0,0.0,90,0.00,,---,0.00,0.00,VWS V14.01,2013-12-29 01:26:00,
2013-12-28 20:30:00,27.3,25.0,30.11,WSW,242,0.0,2.0,91,0.00,,---,0.00,0.00,VWS V15.00,2013-12-29 01:30:00,
2013-12-28 20:31:00,27.4,24.9,30.11,WSW,242,0.0,0.0,90,0.00,,---,0.00,0.00,VWS V14.01,2013-12-29 01:31:00,
2013-12-28 20:36:00,27.4,24.9,30.11,WSW,242,0.0,0.0,90,0.00,,---,0.00,0.00,VWS V14.01,2013-12-29 01:36:00,
2013-12-28 20:41:00,27.4,24.9,30.11,WSW,242,0.0,0.0,90,0.00,,---,0.00,0.00,VWS V14.01,2013-12-29 01:41:00,
2013-12-28 20:46:00,27.4,25.1,30.11,WSW,242,0.0,0.0,91,0.00,,---,0.00,0.00,VWS V14.01,2013-12-29 01:46:00,
2013-12-28 20:51:00,27.5,25.2,30.11,WSW,242,0.0,0.0,91,0.00,,---,0.00,0.00,VWS V14.01,2013-12-29 01:51:00,
2013-12-28 20:56:00,27.6,25.3,30.11,WSW,242,0.0,0.0,91,0.00,,---,0.00,0.00,VWS V14.01,2013-12-29 01:56:00,
2013-12-28 21:00:00,26.9,24.6,30.10,WSW,242,0.0,0.0,91,0.00,,---,0.00,0.00,VWS V15.00,2013-12-29 02:00:00,
2013-12-28 21:01:00,27.6,25.3,30.11,WSW,242,0.0,0.0,91,0.00,,---,0.00,0.00,VWS V14.01,2013-12-29 02:01:00,
2013-12-28 21:06:00,27.6,25.3,30.10,WSW,242,0.0,2.0,91,0.00,,---,0.00,0.00,VWS V14.01,2013-12-29 02:06:00,
2013-12-28 21:11:00,27.6,25.3,30.10,WSW,242,0.0,2.0,91,0.00,,---,0.00,0.00,VWS V14.01,2013-12-29 02:11:00,
2013-12-28 21:16:00,27.5,25.2,30.10,WSW,242,0.0,2.0,91,0.00,,---,0.00,0.00,VWS V14.01,2013-12-29 02:16:00,
2013-12-28 21:21:00,27.5,25.2,30.10,WSW,242,0.0,2.0,91,0.00,,---,0.00,0.00,VWS V14.01,2013-12-29 02:21:00,
2013-12-28 21:26:00,27.4,25.1,30.10,WSW,242,0.0,2.0,91,0.00,,---,0.00,0.00,VWS V14.01,2013-12-29 02:26:00,
2013-12-28 21:30:00,26.0,24.0,30.11,WSW,242,0.0,0.0,92,0.00,,---,0.00,0.00,VWS V15.00,2013-12-29 02:30:00,
2013-12-28 21:31:00,27.2,24.9,30.11,WSW,242,0.0,0.0,91,0.00,,---,0.00,0.00,VWS V14.01,2013-12-29 02:31:00,
2013-12-28 21:36:00,27.2,24.9,30.10,WSW,242,0.0,0.0,91,0.00,,---,0.00,0.00,VWS V14.01,2013-12-29 02:36:00,
2013-12-28 21:41:00,27.2,24.9,30.11,WSW,242,0.0,0.0,91,0.00,,---,0.00,0.00,VWS V14.01,2013-12-29 02:41:00,
2013-12-28 21:46:00,27.2,24.9,30.11,WSW,242,0.0,0.0,91,0.00,,---,0.00,0.00,VWS V14.01,2013-12-29 02:46:00,
2013-12-28 21:51:00,27.1,24.8,30.10,WSW,242,0.0,0.0,91,0.00,,---,0.00,0.00,VWS V14.01,2013-12-29 02:51:00,
2013-12-28 21:56:00,27.1,24.8,30.10,WSW,242,0.0,0.0,91,0.00,,---,0.00,0.00,VWS V14.01,2013-12-29 02:56:00,
2013-12-28 22:00:00,25.7,23.7,30.10,WSW,242,0.0,0.0,92,0.00,,---,0.00,0.00,VWS V15.00,2013-12-29 03:00:00,
2013-12-28 22:01:00,26.9,24.6,30.10,WSW,242,0.0,0.0,91,0.00,,---,0.00,0.00,VWS V14.01,2013-12-29 03:01:00,
2013-12-28 22:06:00,26.7,24.4,30.10,WSW,242,0.0,0.0,91,0.00,,---,0.00,0.00,VWS V14.01,2013-12-29 03:06:00,
2013-12-28 22:15:00,26.7,24.4,30.10,WSW,242,0.0,0.0,91,0.00,,---,0.00,0.00,VWS V14.01,2013-12-29 03:15:00,
2013-12-28 22:20:00,26.3,24.0,30.11,WSW,242,0.0,0.0,91,0.00,,---,0.00,0.00,VWS V14.01,2013-12-29 03:20:00,
2013-12-28 22:25:00,26.1,23.8,30.10,WSW,242,0.0,0.0,91,0.00,,---,0.00,0.00,VWS V14.01,2013-12-29 03:25:00,
2013-12-28 22:30:00,26.0,24.0,30.11,WSW,242,0.0,0.0,92,0.00,,---,0.00,0.00,VWS V14.01,2013-12-29 03:30:00,
2013-12-28 22:35:00,25.9,23.9,30.11,WSW,242,0.0,0.0,92,0.00,,---,0.00,0.00,VWS V14.01,2013-12-29 03:35:00,
2013-12-28 22:40:00,26.0,24.0,30.11,WSW,242,0.0,0.0,92,0.00,,---,0.00,0.00,VWS V14.01,2013-12-29 03:40:00,
2013-12-28 22:45:00,26.0,24.0,30.11,WSW,242,0.0,0.0,92,0.00,,---,0.00,0.00,VWS V14.01,2013-12-29 03:45:00,
2013-12-28 22:50:00,25.9,23.9,30.10,WSW,242,0.0,0.0,92,0.00,,---,0.00,0.00,VWS V14.01,2013-12-29 03:50:00,
2013-12-28 22:55:00,25.8,23.8,30.10,WSW,242,0.0,0.0,92,0.00,,---,0.00,0.00,VWS V14.01,2013-12-29 03:55:00,
2013-12-28 23:00:00,25.7,23.7,30.10,WSW,242,0.0,0.0,92,0.00,,---,0.00,0.00,VWS V14.01,2013-12-29 04:00:00,
2013-12-28 23:05:00,25.7,23.7,30.09,WSW,242,0.0,0.0,92,0.00,,---,0.00,0.00,VWS V14.01,2013-12-29 04:05:00,
2013-12-28 23:10:00,25.5,23.5,30.09,WSW,242,0.0,0.0,92,0.00,,---,0.00,0.00,VWS V14.01,2013-12-29 04:10:00,
2013-12-28 23:15:00,25.3,23.3,30.09,WSW,242,0.0,1.0,92,0.00,,---,0.00,0.00,VWS V14.01,2013-12-29 04:15:00,
2013-12-28 23:20:00,25.5,23.8,30.09,WSW,242,0.0,2.0,93,0.00,,---,0.00,0.00,VWS V14.01,2013-12-29 04:20:00,
2013-12-28 23:25:00,25.6,23.9,30.08,WSW,242,0.0,2.0,93,0.00,,---,0.00,0.00,VWS V14.01,2013-12-29 04:25:00,
2013-12-28 23:30:00,25.7,24.0,30.08,WSW,242,0.0,0.0,93,0.00,,---,0.00,0.00,VWS V14.01,2013-12-29 04:30:00,
2013-12-28 23:35:00,25.8,24.1,30.08,WSW,242,0.0,2.0,93,0.00,,---,0.00,0.00,VWS V14.01,2013-12-29 04:35:00,
2013-12-28 23:40:00,25.9,24.2,30.07,WSW,242,0.0,2.0,93,0.00,,---,0.00,0.00,VWS V14.01,2013-12-29 04:40:00,
2013-12-28 23:45:00,25.9,24.2,30.07,WSW,242,0.0,2.0,93,0.00,,---,0.00,0.00,VWS V14.01,2013-12-29 04:45:00,
2013-12-28 23:50:00,25.8,24.1,30.07,WSW,242,0.0,2.0,93,0.00,,---,0.00,0.00,VWS V14.01,2013-12-29 04:50:00,
2013-12-28 23:55:00,25.8,24.1,30.08,WSW,242,0.0,2.0,93,0.00,,---,0.00,0.00,VWS V14.01,2013-12-29 04:55:00,